User: anonymous   Login
Location: Armidale
(30.5016°S, 151.6662°E)
Time: 06:32:15
(UTC+10:00)
Language:

Envisat - Orbit

View from above orbital plane
View from above orbital plane
View from above satellite
View from above satellite

Ground track
Ground track

The orbit data is extracted from the following two-line orbital elements,

1 27386U 02009A   22221.42270760  .00000068  00000-0  35852-4 0  9995
2 27386  98.1871 200.0559 0001386  85.6988  87.2774 14.38143635 71141
Epoch (UTC): 09 August 2022 10:08:41
Eccentricity: 0.0001386
inclination: 98.1871°
perigee height: 763 km
apogee height: 765 km
right ascension of ascending node: 200.0559°
argument of perigee: 85.6988°
revolutions per day: 14.38143635
mean anomaly at epoch: 87.2774°
orbit number at epoch: 7114

The dashed part of the orbit path shows where the satellite is in the earth's shadow,  

DLR